Salina, KS

2:07 PM CDT on October 01, 2016 (GMT -0500)
Salina Municipal

Weather History for KSLN - January, 2014

Change the Weather History Date:

Monday, January 6, 2014

  Actual Average Record
Temperature  
Mean Temperature 5 °F 31 °F  
Max Temperature 15 °F 41 °F 62 °F (1939)
Min Temperature -6 °F 20 °F -15 °F (1910)
Degree Days  
Heating Degree Days 60 34  
Month to date heating degree days 283 204  
Since 1 July heating degree days 2423 2168  
Cooling Degree Days 0 0  
Month to date cooling degree days 0 0  
Year to date cooling degree days 0 0  
Moisture  
Dew Point -10 °F    
Average Humidity 58    
Maximum Humidity 75    
Minimum Humidity 40    
Precipitation  
Precipitation T in 0.01 in 0.24 in (1988)
Month to date precipitation T 0.09  
Year to date precipitation T 0.09  
Sea Level Pressure  
Sea Level Pressure 30.59 in    
Wind  
Wind Speed 10 mph (WNW)    
Max Wind Speed 20 mph    
Max Gust Speed 25 mph    
Visibility 10 miles    
Events Snow    
T = Trace of Precipitation, MM = Missing Value Source: NWS Daily Summary

Daily Weather History Graph

Daily Weather History Graph

Search for Another Location

Airport or City:

Trip Planner

Search our weather history database for the weather conditions in past years. The results will help you decide how hot, cold, wet, or windy it might be!

Date:

Astronomy

Jan. 06, 2014 Rise Set
Actual Time 7:49 AM CST 5:24 PM CST
Civil Twilight 7:19 AM CST 5:53 PM CST
Nautical Twilight 6:46 AM CST 6:26 PM CST
Astronomical Twilight 6:14 AM CST 6:59 PM CST
Moon 11:09 AM CST (1/6) 11:54 PM CST (1/6)
Length of Visible Light 10h 34m
Length of Day
9h 34m
Waxing Crescent, 35% of the Moon is Illuminated
Jan 6
Waxing Crescent
Jan 7
First Quarter
Jan 15
Full
Jan 23
Last Quarter
Jan 30
New

Hourly Weather History & Observations

Time (CST) Temp. Windchill Dew Point Humidity Pressure Visibility Wind Dir Wind Speed Gust Speed Precip Events Conditions
12:53 AM -0.0 °F -18.0 °F -11.9 °F 57% 30.67 in 10.0 mi NW 12.7 mph - N/A   Clear
1:53 AM -2.0 °F -19.6 °F -13.0 °F 60% 30.66 in 10.0 mi WNW 11.5 mph - N/A   Clear
2:53 AM -0.9 °F -20.6 °F -16.1 °F 49% 30.67 in 9.0 mi NW 15.0 mph - 0.00 in   Clear
3:53 AM -2.0 °F -19.6 °F -16.1 °F 51% 30.67 in 10.0 mi NW 11.5 mph - 0.00 in   Clear
4:53 AM -2.0 °F -20.5 °F -15.0 °F 54% 30.65 in 10.0 mi WNW 12.7 mph - N/A   Clear
5:53 AM -6.0 °F -23.6 °F -16.1 °F 62% 30.66 in 10.0 mi West 10.4 mph - N/A   Clear
6:53 AM -5.1 °F -22.5 °F -14.1 °F 65% 30.67 in 10.0 mi WNW 10.4 mph - N/A   Clear
7:53 AM -4.0 °F -22.1 °F -14.1 °F 62% 30.66 in 10.0 mi WNW 11.5 mph - N/A   Clear
8:53 AM -0.9 °F -17.4 °F -13.0 °F 57% 30.68 in 10.0 mi WNW 10.4 mph - N/A   Clear
9:53 AM 1.9 °F -18.1 °F -13.0 °F 50% 30.69 in 10.0 mi NW 17.3 mph - 0.00 in Snow Light Snow
9:59 AM 3.0 °F -16.7 °F -11.9 °F 50% 30.60 in 9.0 mi NW 17.3 mph - 0.00 in Snow Light Snow
10:01 AM 3.0 °F -16.7 °F -11.9 °F 50% 30.60 in 10.0 mi NW 17.3 mph - 0.00 in   Clear
10:53 AM 6.1 °F -11.6 °F -11.9 °F 44% 30.68 in 10.0 mi NW 15.0 mph - 0.00 in   Clear
11:53 AM 8.1 °F -6.2 °F -9.0 °F 46% 30.65 in 10.0 mi WNW 10.4 mph - N/A   Clear
12:53 PM 9.0 °F -5.1 °F -7.1 °F 48% 30.61 in 10.0 mi West 10.4 mph - N/A   Clear
1:53 PM 12.9 °F -2.8 °F -7.1 °F 41% 30.57 in 10.0 mi NW 15.0 mph - N/A   Clear
2:53 PM 15.1 °F 2.5 °F -5.1 °F 41% 30.55 in 10.0 mi WNW 10.4 mph - N/A   Clear
3:53 PM 15.1 °F 2.5 °F -5.1 °F 41% 30.54 in 10.0 mi NW 10.4 mph - N/A   Clear
4:53 PM 12.9 °F 6.9 °F -4.0 °F 47% 30.54 in 10.0 mi WNW 3.5 mph - N/A   Clear
5:53 PM 8.1 °F - -6.0 °F 53% 30.53 in 10.0 mi Calm Calm - N/A   Clear
6:53 PM 3.9 °F -8.2 °F -8.0 °F 58% 30.53 in 10.0 mi South 6.9 mph - N/A   Clear
7:53 PM 5.0 °F -4.1 °F -7.1 °F 58% 30.52 in 10.0 mi SSE 4.6 mph - N/A   Clear
8:53 PM 1.9 °F -9.2 °F -8.0 °F 63% 30.49 in 10.0 mi SSE 5.8 mph - N/A   Clear
9:53 PM 1.9 °F -7.6 °F -6.0 °F 69% 30.47 in 10.0 mi SSE 4.6 mph - N/A   Clear
10:53 PM 3.9 °F -8.2 °F -4.0 °F 70% 30.43 in 10.0 mi South 6.9 mph - N/A   Clear
11:53 PM 9.0 °F -5.9 °F -0.9 °F 64% 30.40 in 10.0 mi South 11.5 mph - N/A   Clear